Regional Weather Roundup
Issued by NWS

Home | Current Version | Previous Version | Text Only | Print | Product List | Glossary On
Versions: 1 2 3 4 5 6 7 8 9 10 11 12 13 14 15 16 17 18 19 20 21 22 23 24 25 26 27 28 29 30 31 32 33 34 35 36 37 38 39 40 41 42 43 44 45 46 47 48 49 50
000
ASUS43 KMPX 261610
RWRMN
WEATHER ROUNDUP FOR MINNESOTA
NATIONAL WEATHER SERVICE TWIN CITIES/CHANHASSEN MN
1100 AM CDT TUE JUL 26 2016


NOTE: "FAIR" INDICATES FEW OR NO CLOUDS BELOW 12,000 FEET WITH NO
SIGNIFICANT WEATHER AND/OR OBSTRUCTIONS TO VISIBILITY. N/A MEANS
CURRENT SKY AND/OR WEATHER CONDITIONS ARE NOT AVAILABLE.

MNZ060>063-068>070-261700-
   Twin Cities Metro

CITY           SKY/WX    TMP DP  RH WIND       PRES   REMARKS
TWIN CITIES    MOSUNNY   84  64  50 W10G18    30.05S
ST PAUL        MOSUNNY   84  67  56 SW9       30.04F
CRYSTAL        SUNNY     84  64  50 W10G18    30.03F
BLAINE         MOSUNNY   86  66  51 SW7       30.04S
LAKEVILLE      SUNNY     81  68  65 SW3       30.07S
EDEN PRAIRIE   SUNNY     83  67  58 SW9       30.05S
LAKEVILLE      SUNNY     81  68  65 SW3       30.07S
SOUTH ST PAUL  SUNNY     83  65  55 W9        30.05F
LAKE ELMO      FAIR      82  70  65 SW9       30.06S
$$
MNZ001>005-007-008-013>017-022>024-027-028-261700-
   Northwest Minnesota

CITY           SKY/WX    TMP DP  RH WIND       PRES   REMARKS
BEMIDJI        PTSUNNY   73  64  73 CALM      29.97F
HALLOCK        SUNNY     79  66  65 CALM      29.99R
ROSEAU         CLOUDY    79  68  69 CALM      29.99R
WARROAD        MOSUNNY   75  70  83 NE8       30.00R
THIEF RVR FALL CLOUDY    78  65  63 VRB3      30.00R
CROOKSTON      CLOUDY    79  68  69 N3        29.98R
FOSSTON        CLOUDY    77  72  83 CALM      29.98R
DETROIT LAKES  CLOUDY    72  63  73 CALM      30.00R
MOORHEAD       CLOUDY    73  66  78 W6        29.98R
PARK RAPIDS    PTSUNNY   72  66  81 SW9       30.00R
MAHNOMEN       PTSUNNY   73  65  75 S3        29.98R
$$
MNZ006-009>011-018-025>026-261700-
   North Central Minnesota

CITY           SKY/WX    TMP DP  RH WIND       PRES   REMARKS
BAUDETTE       CLOUDY    78  63  59 CALM      29.98S
FLAG ISLAND    SUNNY     75  54  46 NE7       29.98S
INTL FALLS     CLOUDY    79  63  57 N3        29.97F
WASKISH        CLOUDY    81  66  61 CALM      29.97F
BIG FORK       CLOUDY    77  68  73 CALM      29.97F
LONGVILLE      PTSUNNY   73  68  83 SW5       29.97S
GRAND RAPIDS   CLOUDY    75  65  70 VRB3      29.98F
CRANE LAKE     PTSUNNY   73  66  78 NW2       29.98S
ORR            CLOUDY    75  66  73 CALM      29.96S
COOK           CLOUDY    75  66  73 W6        29.98S
WALKER         FAIR      72  64  76 CALM      29.97F
$$
MNZ012-019>021-037-261700-
   Northeast Minnesota

CITY           SKY/WX    TMP DP  RH WIND       PRES   REMARKS
DULUTH         CLOUDY    75  69  81 W7        29.98F
ELY            CLOUDY    77  63  61 CALM      29.97F
HIBBING        PTSUNNY   75  65  70 W5        29.97F
EVELETH        CLOUDY    78  66  66 CALM      29.98F
DULUTH HARBOR  CLOUDY    81  70  69 SW9       29.95F
TWO HARBORS    CLOUDY    82  72  69 W7        29.94F
SILVER BAY     CLOUDY    82  68  61 W6        29.93F
GRAND MARAIS     N/A     63  58  83 SW8       29.95R
G MARAIS ARPRT MOSUNNY   73  63  68 SE3       30.00S
$$
MNZ029>031-032-039>041-046>048-054>057-064-261700-
   West Central Minnesota

CITY           SKY/WX    TMP DP  RH WIND       PRES   REMARKS
FERGUS FALLS   CLOUDY    75  66  73 SW8       29.99S
WHEATON        CLOUDY    81  70  69 SW6       29.99F
MORRIS         MOSUNNY   84  66  54 W12       30.00R
ALEXANDRIA     CLOUDY    79  66  64 SW13      30.02F
ELBOW LAKE     FAIR      79  69  71 W8        30.00R
WADENA         CLOUDY    79  66  65 SW8       29.97F
GLENWOOD       MOSUNNY   81  66  61 W10       30.02S
APPLETON       SUNNY     82  64  54 SW12      30.01S
BENSON         SUNNY     81  64  57 W14       30.01S
ORTONVILLE     MOSUNNY   82  64  54 SW5       30.01S
MADISON        SUNNY     82  64  54 SW9       30.02S
WILLMAR        FAIR      81  68  65 SW6       30.04F
$$
MNZ033>034-036-042>043-049>051-058-059-261700-
   Central Minnesota

CITY           SKY/WX    TMP DP  RH WIND       PRES   REMARKS
ST CLOUD       MOSUNNY   81  67  62 SW10      30.02S
SAUK CENTRE    FAIR      79  67  68 SW6       30.02S
PAYNESVILLE    MOSUNNY   78  64  60 SW14      30.04R
AITKIN         CLOUDY    77  64  65 SW8       29.97F
PINE RIVER     CLOUDY    73  66  78 CALM      30.01F
BRAINERD       CLOUDY    74  66  76 VRB6      30.00F
STAPLES        CLOUDY    79  64  61 S6        29.98F
LONG PRAIRIE   FAIR      77  64  65 S8        30.01F
LITTLE FALLS   PTSUNNY   75  63  64 SW5       30.01S
LITCHFIELD     SUNNY     82  70  65 SW6       30.04F
BUFFALO        MOSUNNY   80  66  61 SW9       30.05S
MAPLE LAKE     SUNNY     79  71  75 S6        30.04F
HUTCHINSON     PTSUNNY   79  70  72 SW9       30.07S
$$
MNZ037-044-045-052-053-261700-
   East Central Minnesota

CITY           SKY/WX    TMP DP  RH WIND       PRES   REMARKS
PRINCETON      SUNNY     84  66  54 SW7       30.02S
MORA           PTSUNNY   79  64  61 SW7       30.02F
CAMBRIDGE      CLOUDY    82  66  57 SW9       30.00F
RUSH CITY      MOSUNNY   81  67  63 SW8       30.02F
MOOSE LAKE     CLOUDY    75  64  69 SW5       29.97F
HINCKLEY       FAIR      81  70  69 W7        30.00F
CLOQUET        MOSUNNY   79  63  57 W6        29.98F
MCGREGOR       PTSUNNY   73  64  73 SW7       29.99S
$$
MNZ071>073-080-081-089-090-097-098-261700-
   Southwest Minnesota

CITY           SKY/WX    TMP DP  RH WIND       PRES   REMARKS
MONTEVIDEO     SUNNY     81  66  61 W7        30.04F
GRANITE FALLS  SUNNY     82  67  60 CALM      30.06S
CANBY          SUNNY     83  63  50 W8        30.05S
MARSHALL       SUNNY     82  68  62 N3        30.05S
REDWOOD FALLS  SUNNY     82  64  54 SW8       30.05R
OLIVIA         SUNNY     79  66  65 CALM      30.05S
PIPESTONE      SUNNY     79  66  65 SW9       30.09S
WINDOM         SUNNY     82  66  57 SW13      30.08R
WORTHINGTON    SUNNY     80  68  66 SW10      30.10R
JACKSON        SUNNY     81  63  54 SW9       30.10R
TRACY          SUNNY     82  68  61 NW5       30.07R
SLAYTON        SUNNY     79  63  56 SW16      30.09S HAZE
$$
MNZ065>067-074>077-082>085-091>093-261700-
   South Central Minnesota

CITY           SKY/WX    TMP DP  RH WIND       PRES   REMARKS
MANKATO        SUNNY     82  64  54 SW8       30.08R
NEW ULM        SUNNY     82  68  61 W6        30.07R
ST JAMES       SUNNY     79  63  57 SW3       30.07S
FAIRMONT       SUNNY     81  55  41 S7        30.08R
GLENCOE        SUNNY     82  71  70 SW7       30.07R
FARIBAULT      SUNNY     82  70  65 S6        30.08S
OWATONNA       SUNNY     82  66  57 SW3       30.08S
WASECA         SUNNY     79  68  69 SW6       30.09F
ALBERT LEA     SUNNY     81  68  65 SW3       30.10S
$$
MNZ078>079-086>088-094>096-261700-
   Southeast Minnesota

CITY           SKY/WX    TMP DP  RH WIND       PRES   REMARKS
ROCHESTER      SUNNY     81  69  67 VRB7      30.11S
RED WING       MOSUNNY   82  66  57 W5        30.06R
STANTON        SUNNY     82  66  57 W6        30.07S
DODGE CENTER   SUNNY     82  68  61 SW7       30.10S
WINONA         SUNNY     81  64  57 W5        30.07S
AUSTIN         SUNNY     79  66  65 S5        30.10S
PRESTON        SUNNY     79  65  61 W5        30.12S
$$
ABBREVIATIONS USED IN REMARKS
   TC - TEMPERATURES IN CELSIUS
  WCI - WIND CHILL INDEX
   HX - HEAT INDEX
  VSB - VISIBILITY
$$



USA.gov is the U.S. government's official web portal to all federal, state and local government web resources and services.